| time (UTC) | temp C | wind direction | speed KPH | gust KPH | rain 1hr cm | rain 24hr cm | rain mn cm | humidity % | barometer mb |
| 20260906113102 | 17 | 0 | 0.0 | 0.0 | 0.00 | 0.00 | 0.00 | 95 | 1019.3 |
| 20260906111558 | 17 | 0 | 0.0 | 0.0 | 0.00 | 0.00 | 0.00 | 95 | 1019.2 |
| 20260906110055 | 17 | 0 | 0.0 | 0.0 | 0.00 | 0.00 | 0.00 | 94 | 1018.9 |
| 20260906104552 | 17 | 0 | 0.0 | 0.0 | 0.00 | 0.00 | 0.00 | 94 | 1018.9 |
| 20260906103058 | 17 | 0 | 0.0 | 0.0 | 0.00 | 0.00 | 0.00 | 94 | 1018.9 |
| 20260906101602 | 17 | 0 | 0.0 | 1.6 | 0.00 | 0.00 | 0.00 | 94 | 1018.8 |
| 20260906100055 | 17 | 0 | 0.0 | 1.6 | 0.00 | 0.00 | 0.00 | 94 | 1018.6 |
| 20260906094553 | 17 | 0 | 0.0 | 1.6 | 0.00 | 0.00 | 0.00 | 94 | 1018.5 |
| 20260906093105 | 17 | 117 | 0.0 | 1.6 | 0.00 | 0.00 | 0.00 | 94 | 1018.6 |
| 20260906091556 | 17 | 0 | 0.0 | 1.6 | 0.00 | 0.00 | 0.00 | 94 | 1018.4 |
| 20260906090051 | 17 | 0 | 0.0 | 0.0 | 0.00 | 0.00 | 0.00 | 94 | 1018.4 |
| 20260906084557 | 16 | 0 | 0.0 | 0.0 | 0.00 | 0.00 | 0.00 | 94 | 1018.5 |
| 20260906083048 | 16 | 0 | 0.0 | 0.0 | 0.00 | 0.00 | 0.00 | 93 | 1018.4 |
| 20260906081600 | 16 | 0 | 0.0 | 1.6 | 0.00 | 0.00 | 0.00 | 93 | 1018.6 |
| 20260906080100 | 16 | 0 | 0.0 | 1.6 | 0.00 | 0.00 | 0.00 | 92 | 1018.5 |
| 20260906074552 | 16 | 0 | 0.0 | 0.0 | 0.00 | 0.00 | 0.00 | 92 | 1018.4 |
| 20260906073059 | 17 | 0 | 0.0 | 0.0 | 0.00 | 0.00 | 0.00 | 91 | 1018.4 |
| 20260906071606 | 17 | 0 | 0.0 | 0.0 | 0.00 | 0.00 | 0.00 | 91 | 1018.3 |
| 20260906070055 | 17 | 0 | 0.0 | 0.0 | 0.00 | 0.00 | 0.00 | 91 | 1018.3 |
| 20260906064602 | 18 | 0 | 0.0 | 0.0 | 0.00 | 0.00 | 0.00 | 91 | 1018.4 |
| 20260906063058 | 18 | 0 | 0.0 | 0.0 | 0.00 | 0.00 | 0.00 | 90 | 1018.7 |
| 20260906061558 | 18 | 0 | 0.0 | 0.0 | 0.00 | 0.00 | 0.00 | 90 | 1018.6 |
| 20260906060138 | 19 | 0 | 0.0 | 1.6 | 0.00 | 0.00 | 0.00 | 90 | 1018.6 |
| 20260906054550 | 19 | 123 | 0.0 | 1.6 | 0.00 | 0.00 | 0.00 | 90 | 1018.6 |
| 20260906053057 | 19 | 0 | 0.0 | 1.6 | 0.00 | 0.00 | 0.00 | 90 | 1018.6 |
| 20260906051556 | 19 | 0 | 0.0 | 1.6 | 0.00 | 0.00 | 0.00 | 91 | 1018.6 |
| 20260906050110 | 19 | 0 | 0.0 | 1.6 | 0.00 | 0.00 | 0.00 | 90 | 1018.3 |
| 20260906044548 | 19 | 0 | 0.0 | 1.6 | 0.00 | 0.00 | 0.00 | 91 | 1018.3 |
| 20260906043047 | 19 | 200 | 0.0 | 1.6 | 0.00 | 0.00 | 0.00 | 91 | 1018.1 |
| 20260906041555 | 19 | 142 | 0.0 | 1.6 | 0.00 | 0.00 | 0.00 | 91 | 1017.9 |
| 20260906040054 | 19 | 0 | 0.0 | 0.0 | 0.00 | 0.00 | 0.00 | 90 | 1017.8 |
| 20260906034601 | 19 | 0 | 0.0 | 1.6 | 0.00 | 0.00 | 0.00 | 89 | 1017.7 |
| 20260906033056 | 20 | 0 | 0.0 | 1.6 | 0.00 | 0.00 | 0.00 | 89 | 1017.5 |
| 20260906031616 | 20 | 0 | 0.0 | 1.6 | 0.00 | 0.00 | 0.00 | 88 | 1017.4 |
| 20260906030051 | 20 | 242 | 0.0 | 1.6 | 0.00 | 0.00 | 0.00 | 87 | 1017.3 |
| 20260906024605 | 21 | 115 | 0.0 | 1.6 | 0.00 | 0.03 | 0.00 | 86 | 1017.3 |
| 20260906023109 | 21 | 140 | 0.0 | 1.6 | 0.00 | 0.03 | 0.00 | 86 | 1017.3 |
| 20260906021555 | 21 | 0 | 0.0 | 1.6 | 0.00 | 0.03 | 0.00 | 86 | 1017.2 |
| 20260906020059 | 21 | 0 | 0.0 | 6.4 | 0.00 | 0.03 | 0.00 | 86 | 1017.2 |
| 20260906014557 | 21 | 0 | 0.0 | 1.6 | 0.00 | 0.03 | 0.00 | 86 | 1017.1 |
| 20260906013056 | 21 | 0 | 0.0 | 1.6 | 0.00 | 0.03 | 0.00 | 86 | 1017.1 |
| 20260906011604 | 21 | 0 | 0.0 | 4.8 | 0.00 | 0.03 | 0.00 | 87 | 1017.1 |
| 20260906010059 | 21 | 141 | 0.0 | 4.8 | 0.00 | 0.03 | 0.00 | 87 | 1016.9 |
| 20260906004558 | 21 | 257 | 0.0 | 3.2 | 0.00 | 0.03 | 0.00 | 86 | 1017.1 |
| 20260906003051 | 21 | 0 | 0.0 | 3.2 | 0.00 | 0.03 | 0.00 | 85 | 1017.0 |
| 20260906001548 | 22 | 308 | 0.0 | 9.7 | 0.00 | 0.03 | 0.00 | 83 | 1017.0 |
| 20260906000105 | 22 | 180 | 1.6 | 4.8 | 0.00 | 0.03 | 0.00 | 81 | 1016.8 |
| 20260905234549 | 23 | 109 | 0.0 | 9.7 | 0.00 | 0.03 | 0.00 | 81 | 1016.7 |
| 20260905233051 | 23 | 259 | 0.0 | 3.2 | 0.00 | 0.03 | 0.00 | 79 | 1016.5 |
| 20260905231616 | 24 | 292 | 0.0 | 9.7 | 0.00 | 0.03 | 0.00 | 78 | 1016.3 |
| 20260905230100 | 25 | 137 | 1.6 | 8.0 | 0.00 | 0.03 | 0.00 | 77 | 1016.3 |
| 20260905224549 | 26 | 266 | 0.0 | 16.1 | 0.00 | 0.03 | 0.00 | 76 | 1015.9 |
| 20260905223059 | 27 | 289 | 1.6 | 8.0 | 0.00 | 0.03 | 0.00 | 74 | 1015.8 |
| 20260905221607 | 28 | 0 | 0.0 | 3.2 | 0.00 | 0.03 | 0.00 | 69 | 1015.8 |
| 20260905220055 | 28 | 0 | 1.6 | 4.8 | 0.00 | 0.03 | 0.00 | 69 | 1015.7 |
| 20260905214601 | 28 | 0 | 0.0 | 3.2 | 0.00 | 0.03 | 0.00 | 72 | 1015.7 |
| 20260905213047 | 28 | 0 | 0.0 | 4.8 | 0.00 | 0.03 | 0.00 | 70 | 1015.6 |
| 20260905211554 | 30 | 111 | 0.0 | 4.8 | 0.00 | 0.03 | 0.00 | 66 | 1015.6 |
| 20260905210103 | 28 | 0 | 0.0 | 4.8 | 0.00 | 0.03 | 0.00 | 67 | 1015.6 |
| 20260905204556 | 28 | 142 | 0.0 | 4.8 | 0.00 | 0.03 | 0.00 | 68 | 1015.6 |
| 20260905203050 | 28 | 301 | 0.0 | 4.8 | 0.00 | 0.03 | 0.00 | 70 | 1015.7 |
| 20260905201559 | 28 | 0 | 0.0 | 4.8 | 0.00 | 0.03 | 0.00 | 71 | 1015.9 |
| 20260905200124 | 28 | 184 | 0.0 | 8.0 | 0.00 | 0.03 | 0.00 | 70 | 1015.8 |
| 20260905194553 | 27 | 209 | 0.0 | 4.8 | 0.00 | 0.03 | 0.00 | 75 | 1015.9 |
| 20260905193047 | 26 | 194 | 0.0 | 3.2 | 0.00 | 0.03 | 0.00 | 77 | 1016.2 |
| 20260905191557 | 25 | 0 | 0.0 | 1.6 | 0.00 | 0.03 | 0.00 | 81 | 1016.3 |
| 20260905190055 | 25 | 0 | 0.0 | 1.6 | 0.00 | 0.03 | 0.00 | 81 | 1016.4 |
| 20260905184553 | 24 | 233 | 0.0 | 3.2 | 0.00 | 0.03 | 0.00 | 82 | 1016.5 |
| 20260905183050 | 24 | 313 | 0.0 | 4.8 | 0.00 | 0.03 | 0.00 | 82 | 1016.7 |
| 20260905181556 | 24 | 143 | 0.0 | 1.6 | 0.00 | 0.03 | 0.00 | 83 | 1016.5 |
| 20260905180112 | 24 | 0 | 0.0 | 1.6 | 0.00 | 0.03 | 0.00 | 82 | 1016.5 |
| 20260905174550 | 24 | 0 | 0.0 | 1.6 | 0.00 | 0.03 | 0.00 | 83 | 1016.6 |
| 20260905173114 | 24 | 0 | 0.0 | 4.8 | 0.00 | 0.03 | 0.00 | 83 | 1016.4 |
| 20260905171557 | 24 | 288 | 0.0 | 3.2 | 0.00 | 0.03 | 0.00 | 83 | 1016.6 |
| 20260905170053 | 24 | 302 | 0.0 | 1.6 | 0.00 | 0.03 | 0.00 | 83 | 1016.6 |
| 20260905164603 | 25 | 0 | 0.0 | 4.8 | 0.00 | 0.30 | 0.00 | 82 | 1016.7 |
| 20260905163058 | 25 | 248 | 0.0 | 3.2 | 0.00 | 0.30 | 0.00 | 82 | 1016.7 |
| 20260905161559 | 25 | 0 | 0.0 | 1.6 | 0.00 | 0.30 | 0.00 | 82 | 1016.6 |
| 20260905160059 | 25 | 148 | 0.0 | 3.2 | 0.00 | 0.30 | 0.00 | 81 | 1016.5 |
| 20260905154552 | 25 | 0 | 0.0 | 3.2 | 0.00 | 0.30 | 0.00 | 81 | 1016.4 |
| 20260905153056 | 26 | 103 | 0.0 | 6.4 | 0.00 | 0.30 | 0.00 | 80 | 1016.2 |
| 20260905151550 | 25 | 114 | 0.0 | 3.2 | 0.00 | 0.30 | 0.00 | 83 | 1016.1 |
| 20260905150057 | 25 | 132 | 0.0 | 9.7 | 0.00 | 0.30 | 0.00 | 88 | 1016.0 |
| 20260905144555 | 23 | 117 | 1.6 | 8.0 | 0.00 | 0.30 | 0.00 | 89 | 1015.8 |
| 20260905143101 | 22 | 138 | 0.0 | 3.2 | 0.00 | 0.30 | 0.00 | 92 | 1015.9 |
| 20260905141555 | 22 | 0 | 0.0 | 3.2 | 0.00 | 0.30 | 0.00 | 93 | 1015.8 |
| 20260905134600 | 21 | 145 | 0.0 | 4.8 | 0.00 | 0.30 | 0.00 | 94 | 1015.8 |
| 20260905133050 | 21 | 0 | 0.0 | 3.2 | 0.00 | 0.30 | 0.00 | 94 | 1015.7 |
| 20260905131557 | 21 | 0 | 0.0 | 0.0 | 0.00 | 0.30 | 0.00 | 94 | 1015.6 |
| 20260905130055 | 21 | 124 | 0.0 | 1.6 | 0.00 | 0.30 | 0.00 | 95 | 1016.0 |
| 20260905124556 | 21 | 208 | 0.0 | 6.4 | 0.00 | 0.30 | 0.00 | 94 | 1015.4 |
| 20260905123050 | 21 | 0 | 0.0 | 4.8 | 0.00 | 0.30 | 0.00 | 94 | 1015.1 |
| 20260905121601 | 21 | 0 | 0.0 | 1.6 | 0.00 | 0.30 | 0.00 | 94 | 1014.6 |
| 20260905120109 | 20 | 0 | 0.0 | 1.6 | 0.00 | 0.30 | 0.00 | 94 | 1014.5 |
| 20260905114607 | 20 | 127 | 0.0 | 1.6 | 0.00 | 0.30 | 0.00 | 94 | 1014.4 |